Zurück zum Katalog

STARLINK-33953

AktivKommunikationVLEO
NORAD 64028·PAYLOAD·🇺🇸 United States

Gestartet May 16, 2025 von Vandenberg Space Force Base

Loading…

Nächste Überflüge (nächste 24 Stunden)

TLE

AktuellSource: CelesTrak SupGP

Epoche: Sep 14, 2026, 20:37 UTC

1 64028C 25102G   26257.85951389 -.00022643  00000+0 -78776-3 0  2573
2 64028  70.0008 355.9269 0003354 275.3622 209.5685 15.29586920    11

Verfolge STARLINK-33953 in Echtzeit mit AllMySat

Download on the App Store